Location: Cluny
(50.9333°N, 112.8167°W)
Time: 20:52:52
(UTC-06:00)

Hamsat - Visible Passes

Search period start: 04 May 2016 00:00
Search period end: 14 May 2016 00:00
Orbit: 586 x 621 km, 97.6° (Epoch: 04 May)

Date Brightness Start Highest point End Pass type
(mag) Time Alt. Az. Time Alt. Az. Time Alt. Az.
04 May ? 04:53:43 10° ENE 04:54:39 11° E 04:55:35 10° E visible
05 May ? 05:04:42 10° NE 05:06:58 14° E 05:09:13 10° ESE visible
06 May ? 05:16:17 10° NE 05:19:15 18° E 05:22:13 10° SE visible
12 May ? 04:54:38 10° ENE 04:56:02 11° E 04:57:28 10° ESE visible
